Other Public Products
Issued by NWS Grand Forks, ND

Home | Current Version | Previous Version | Text Only | Print | Product List | Glossary Off
Versions: 1 2 3 4 5 6 7 8 9 10 11 12 13 14 15 16 17 18 19 20 21 22 23 24 25 26 27 28 29 30 31 32 33 34 35 36 37 38 39 40 41 42 43 44 45 46 47 48 49 50

000
FPUS83 KFGF 271110
OPUFGF
PRAIRIE TO PINES WEATHER ROUNDUP
NATIONAL WEATHER SERVICE EASTERN NORTH DAKOTA/GRAND FORKS ND
600 AM CDT THU JUL 27 2017

 **SATELLITE DATA USED TO AUGMENT SKY COVER AT AUTOMATED STATIONS**
 *****  WEATHER ACROSS EASTERN NORTH DAKOTA  *****

CITY           SKY/WX    TMP DP  RH WIND       PRES   REMARKS
GRAND FORKS    FAIR      55  55 100 SW5       30.11R
GRAND FORKS AF FAIR      53  52  99 W5        30.12R
GRAND CITY NWS NOT AVBL
BUXTON         NOT AVBL
DEVILS LAKE    FAIR      57  57 100 CALM      30.16R FOG
FARGO          FAIR      58  56  93 NW3       30.12R
WAHPETON ARPT  FAIR      55  54  94 N3        30.11S
$$

 *****  WEATHER ACROSS CENTRAL AND WESTERN NORTH DAKOTA  *****

CITY           SKY/WX    TMP DP  RH WIND       PRES   REMARKS
JAMESTOWN      FAIR      55  54  96 CALM      30.14S
BISMARCK       CLOUDY    66  58  75 NE6       30.15R
MINOT          FAIR      70  56  61 S14       30.13S
MINOT AFB      FAIR      64  58  81 S7        30.11F
GARRISON         N/A     63  62  97 S3        30.18F
WILLISTON      FAIR      69  57  65 NE13G29   30.09R
DICKINSON      FAIR      62  55  77 SE14      30.09R
HETTINGER      FAIR      63  52  67 SE8       30.12F
$$

 *****  OTHER OBSERVATIONS NORTHEAST NORTH DAKOTA  *****

CITY           SKY/WX    TMP DP  RH WIND       PRES   REMARKS
WALHALLA       NOT AVBL
LANGDON        FAIR      54  54 100 SW5       30.15R
CAVALIER       FAIR      59  55  88 W6        30.10R
GRAFTON        FAIR      57  57 100 W5        30.12S
CANDO          NOT AVBL
FORT TOTTEN      N/A     62  56  81 SE2       29.95S
ROLLA            N/A     55  55 100 SW6       30.17R
RUGBY          NOT AVBL
 ***** THE ABOVE OBSERVATIONS ARE NON NWS ARE NOT QUALITY
        CONTROLLED AND MAY MIS-REPORT RAIN FOR SNOW...
$$

 *****  OTHER OBSERVATIONS SOUTHEAST NORTH DAKOTA *****

CITY           SKY/WX    TMP DP  RH WIND       PRES   REMARKS
COOPERSTOWN    FOG       55  54  94 CALM      30.15S VSB 1/4
VALLEY CITY    FAIR      55  55 100 CALM      30.15F
OAKES          NOT AVBL
GWINNER        SUNNY     57  55  94 CALM      30.13S
SHEYENNE NWR     N/A     53  53 100 CALM      29.95S
BUFFALO        NOT AVBL
WYNDMERE       NOT AVBL
 ***** THE ABOVE OBSERVATIONS ARE NON NWS ARE NOT QUALITY
       CONTROLLED AND MAY MIS-REPORT RAIN FOR SNOW...
$$

  *****  WEATHER ACROSS NORTHERN MINNESOTA  *****

CITY           SKY/WX    TMP DP  RH WIND       PRES   REMARKS
FLAG ISLAND    FAIR      64  61  88 NW5       30.09R
WARROAD        FAIR      57  54  88 CALM      30.11S
ROSEAU         FAIR      59  54  82 CALM      30.11R
HALLOCK        FAIR      54  54 100 SE3       30.10R FOG
THF RVR FALLS  FAIR      60  57  89 CALM      30.12S
HALSTAD        NOT AVBL
FOSSTON          N/A     52  50  93 CALM      30.13S FOG
BAUDETTE       FOG       54  54 100 W5        30.10R VSB 3/4
WASKISH        FAIR      55  54  94 CALM      30.11R
CROOKSTON      MOCLDY    55  54  94 CALM      30.12S FOG
$$
  *****  WEATHER ACROSS CENTRAL AND WEST MINNESOTA  *****

CITY           SKY/WX    TMP DP  RH WIND       PRES   REMARKS
BEMIDJI        FAIR      55  53  94 CALM      30.12S
PARK RAPIDS    FAIR      57  55  93 NW3       30.12R
WADENA         FAIR      55  55 100 CALM      30.12R
DETROIT LAKES  FAIR      63  59  88 CALM      30.14R
MOORHEAD       FAIR      55  54  94 CALM      30.13R
FERGUS FALLS   FAIR      61  61 100 CALM      30.11S
ELBOW LAKE     FOG       62  62  97 CALM      30.11F VSB 1/4
MORRIS MN      FAIR      59  57  94 N5        30.10S
STAPLES        FAIR      55  55 100 CALM      30.12R
WHEATON        FAIR      57  55  94 CALM      30.13S
$$
  *****  WEATHER ELSEWHERE ACROSS MINNESOTA  *****

CITY           SKY/WX    TMP DP  RH WIND       PRES   REMARKS
DULUTH         FAIR      59  58  96 NW6       30.09R
INTRNTL FALLS  FAIR      50  48  93 CALM      30.09R FOG
ELY            FAIR      52  52 100 CALM      30.10R
CLOQUET        FAIR      57  54  88 NW5       30.09S
BRAINERD       FAIR      56  55  97 CALM      30.10S
HIBBING        FAIR      50  50 100 CALM      30.09S
ALEXANDRIA     FAIR      63  60  90 NE7       30.12F
SAINT CLOUD    FAIR      60  60 100 NW3       30.08S
MINNEAPOLIS    FAIR      67  60  78 N6        30.05S
$$

  *****  WEATHER ACROSS SOUTH DAKOTA  *****

CITY           SKY/WX    TMP DP  RH WIND       PRES   REMARKS
SIOUX FALLS    FAIR      59  58  96 CALM      30.10S
BROOKINGS      FAIR      60  58  92 CALM      30.12S
WATERTOWN      FAIR      58  56  93 NW6       30.12S
HURON          FAIR      58  58 100 CALM      30.12R
SISSETON         N/A     56  55  97 NW3       30.11S
ABERDEEN       FAIR      58  57  97 N3        30.13S
MITCHELL       FAIR      61  60  97 NW3       30.12R
PIERRE         FAIR      60  54  80 E3        30.12R
MOBRIDGE       FAIR      62  58  86 E8        30.11S
RAPID CITY     FAIR      67  56  67 S6        30.16R
$$

  *****  SOME WEATHER IN NEARBY STATES *****

CITY           SKY/WX    TMP DP  RH WIND       PRES   REMARKS
GLASGOW MT     FAIR      69  48  47 E20       29.97S
GREAT FALLS MT FAIR      66  42  41 W7        30.01F
CHEYENNE WY    FAIR      60  56  86 S6        30.27F
SCOTTSBLUFF NE LGT RAIN  68  65  90 E9        30.19S
OMAHA NE       FAIR      67  64  90 NW7       30.04R
DES MOINES IA  FAIR      71  69  93 N8        29.98R
DAVENPORT IA   CLOUDY    70  69  97 N8        29.96S
CHICAGO IL     MOCLDY    74  70  87 N6        29.94R
EAU CLAIRE WI  FAIR      59  59 100 CALM      30.03S
LA CROSSE WI   FAIR      67  65  93 NW7       30.01R
$$

  *****  SOME NATIONAL WEATHER *****

CITY           SKY/WX    TMP DP  RH WIND       PRES   REMARKS
LA GUARDIA NY  PTSUNNY   68  61  78 SW6       30.05F
RALEIGH NC     MOCLDY    74  68  81 SW8       30.09S
ATLANTA GA     FAIR      73  69  87 E3        30.09S
NEW ORLEANS LA FAIR      78  75  90 NW5       30.04R
OKLAHOMA CITY  MOCLDY    78  68  71 SE5       29.98F
ALBUQUERQUE NM FAIR      77  57  50 E7        30.19R
SALT LAKE CITY FAIR      67  60  78 E5        30.16S
LOS ANGELES CA FAIR      67  64  90 W6        29.96S
BOISE ID       FAIR      69  52  54 E5        30.08S
SEATTLE WA     CLOUDY    58  55  90 SW8       30.11R
$$

*** WEATHER ACROSS MANITOBA...SASKATCHEWAN AND ONTARIO ***
                ***ONTARIO***

CITY           SKY/WX    TMP DP  RH WIND       PRES   REMARKS
GERALDTON      PTCLDY    55  52  88 NW3       30.07R
THUNDER BAY    PTCLDY    55  55 100 NW3       30.06R
SIOUX LOOKOUT  PTCLDY    50  50 100 CALM      30.09R
TORONTO        MOCLDY    68  64  88 W6        29.95F
BIG TROUT LK   CLEAR     50  50 100 W2        30.07  FOG
PICKLE LAKE    PTCLDY    57  55  94 W2        30.08
DRYDEN         CLEAR     59  59 100 CALM      30.09S FOG
KENORA         PTCLDY    63  59  88 N7        30.10R
$$
                *** MANITOBA***

CITY           SKY/WX    TMP DP  RH WIND       PRES   REMARKS
BRANDON        PTCLDY    52  52 100 W6        30.13R
DAUPHIN        PTCLDY    59  57  94 W7        30.09S
ISLAND LAKE    NOT AVBL
PILOT MOUND      N/A     54  54 100 SW5         N/A
THE PAS        PTCLDY    59  55  88 SE2       30.04S
THOMPSON       CLOUDY    63  61  94 W5        30.00R
WINNIPEG       PTCLDY    55  55 100 NW3       30.09R
LYNN LAKE      CLEAR     57  55  94 S5        29.97S
CHURCHILL      MOCLDY    57  54  88 NE8       29.94R
GILLAM         CLOUDY    59  55  88 S3        30.00R
$$
                ***SASKATCHEWAN***

CITY           SKY/WX    TMP DP  RH WIND       PRES   REMARKS
ESTEVAN        PTCLDY    55  54  94 E7        30.09F
KINDERSLEY     PTCLDY    61  48  63 SE8       29.98F
LLOYDMINSTER   CLEAR     54  52  94 E6        29.97F
PRINCE ALBERT  FOG       50  50 100 E3        30.05R VSB 1/4
REGINA         CLEAR     57  52  82 SE13      30.07S
YORKTON        CLEAR     59  55  88 S5        30.10S



USA.gov is the U.S. government's official web portal to all federal, state and local government web resources and services.